Flight Track Log - Related Links

Times and Time Zones

All times are in EST time to prevent confusion due to time zone crossing. See the N496DA flight status page for this flight to view local times or setup timezone preferences in your user account.

Time Position Orientation Groundspeed Altitude Reporting Facility
EST Latitude Longitude Course Direction KTS MPH feet Rate Location/Type
Sat 09:52:48 AM 28.7667 -81.2667 270° West 88 101 700  Level Orlando TRACON
Sat 09:53:18 AM 28.7667 -81.2833 270° West 95 109 1,000 659 Climbing Orlando TRACON
Sat 09:54:19 AM 28.7500 -81.2833 180° South 134 154 1,700 626 Climbing Orlando TRACON
Sat 09:55:13 AM 28.7333 -81.2500 120° Southeast 154 177 2,200 632 Climbing Orlando TRACON
Sat 09:56:13 AM 28.7000 -81.2167 139° Southeast 137 158 2,900 650 Climbing Orlando TRACON
Sat 09:57:13 AM 28.6833 -81.1833 120° Southeast 142 163 3,500 595 Climbing Orlando TRACON
Sat 09:58:14 AM 28.6667 -81.1500 120° Southeast 146 168 4,100 248 Climbing Orlando TRACON
Sat 09:59:14 AM 28.6333 -81.1000 127° Southeast 156 180 4,000  Descending Orlando TRACON
Sat 10:00:14 AM 28.5833 -81.1000 180° South 150 173 4,100 50 Climbing Orlando TRACON
Sat 10:01:14 AM 28.5500 -81.0833 156° South 150 173 4,100  Level Orlando TRACON
Sat 10:02:14 AM 28.5000 -81.0667 164° South 150 173 4,100  Level Orlando TRACON
Sat 10:03:14 AM 28.4667 -81.0500 156° South 143 165 4,100  Level Orlando TRACON
Sat 10:04:14 AM 28.4333 -81.0333 156° South 142 163 4,100  Level Orlando TRACON
Sat 10:05:09 AM 28.4000 -81.0167 156° South 136 157 4,100  Level Orlando TRACON
Sat 10:06:09 AM 28.3667 -81.0000 156° South 134 154 4,100  Level Orlando TRACON
Sat 10:07:15 AM 28.3167 -81.0000 180° South 139 160 4,100  Level Orlando TRACON
Sat 10:08:15 AM 28.2833 -80.9833 156° South 135 155 4,100  Level Orlando TRACON
Sat 10:09:16 AM 28.2500 -80.9667 156° South 129 148 4,100  Level Orlando TRACON
Sat 10:10:16 AM 28.2167 -80.9500 156° South 129 148 4,100  Level Orlando TRACON
Sat 10:11:16 AM 28.1833 -80.9333 156° South 130 150 4,100  Level Orlando TRACON
Sat 10:12:16 AM 28.1500 -80.9333 180° South 128 147 4,100  Level Orlando TRACON
Sat 10:13:17 AM 28.1167 -80.9167 156° South 129 148 4,100  Level Orlando TRACON
Sat 10:14:17 AM 28.0833 -80.9000 156° South 129 148 4,100  Level Orlando TRACON
Sat 10:15:17 AM 28.0500 -80.9000 180° South 134 154 4,100  Level Orlando TRACON
Sat 10:16:17 AM 28.0167 -80.8833 156° South 144 166 4,100  Level Orlando TRACON
Sat 10:17:38 AM 27.9589 -80.8600 160° South 144 166 4,100 -43 Level Miami Center
Sat 10:18:38 AM 27.9219 -80.8447 160° South 144 166 4,000  Descending Miami Center
Sat 10:19:38 AM 27.8889 -80.8317 161° South 149 171 4,100  Climbing Miami Center
Sat 10:20:38 AM 27.8494 -80.8164 161° South 149 171 4,000  Descending Miami Center
Sat 10:21:38 AM 27.8119 -80.8150 178° South 139 160 4,100 50 Climbing Miami Center
Sat 10:22:38 AM 27.7831 -80.8117 174° South 134 154 4,100 -50 Level Miami Center
Sat 10:23:38 AM 27.7433 -80.8078 175° South 134 154 4,000 -50 Descending Miami Center
Sat 10:24:38 AM 27.7081 -80.8019 172° South 134 154 4,000 50 Level Miami Center
Sat 10:25:38 AM 27.6728 -80.7961 172° South 129 148 4,100  Climbing Miami Center
Sat 10:26:38 AM 27.6372 -80.7925 175° South 129 148 4,000  Descending Miami Center
Sat 10:27:38 AM 27.6042 -80.7889 174° South 129 148 4,100  Climbing Miami Center
Sat 10:28:38 AM 27.5644 -80.7831 173° South 129 148 4,000 -50 Descending Miami Center
Sat 10:29:38 AM 27.5292 -80.7772 172° South 129 148 4,000  Level Miami Center
Sat 10:30:38 AM 27.4939 -80.7711 171° South 129 148 4,000 50 Level Miami Center
Sat 10:31:38 AM 27.4586 -80.7678 175° South 129 148 4,100  Climbing Miami Center
Sat 10:32:38 AM 27.4253 -80.7594 167° South 129 148 4,000  Descending Miami Center
Sat 10:33:38 AM 27.3919 -80.7536 171° South 129 148 4,100  Climbing Miami Center
Sat 10:34:38 AM 27.3544 -80.7525 178° South 123 142 4,000  Descending Miami Center
Sat 10:35:38 AM 27.3214 -80.7467 171° South 123 142 4,100  Climbing Miami Center
Sat 10:36:38 AM 27.2858 -80.7408 172° South 123 142 4,000  Descending Miami Center
Sat 10:37:38 AM 27.2547 -80.7375 175° South 123 142 4,100  Climbing Miami Center
Sat 10:38:38 AM 27.2172 -80.7361 178° South 123 142 4,000 -50 Descending Miami Center
Sat 10:39:38 AM 27.1778 -80.7303 173° South 123 142 4,000  Level Miami Center
Sat 10:40:38 AM 27.1422 -80.7267 175° South 128 147 4,000  Level Miami Center
Sat 10:41:38 AM 27.1067 -80.7256 178° South 133 153 4,000  Level Miami Center
Sat 10:42:38 AM 27.0733 -80.7219 174° South 133 153 4,000  Level Miami Center
Sat 10:43:38 AM 27.0297 -80.7183 176° South 139 160 4,000  Level Miami Center
Sat 10:44:38 AM 26.9944 -80.7147 175° South 139 160 4,000 -81 Level Miami Center
Sat 10:54:48 AM 26.6069 -80.5997 158° South 151 174 3,100 -85 Descending Miami Center
Sat 10:55:00 AM 26.6340 -80.6170 156° South  Level FlightAware Approximate
Sat 10:56:00 AM 26.6010 -80.6005 156° South  Level FlightAware Approximate
Sat 10:56:20 AM 26.5511 -80.5772 160° South 138 159 3,000  Level Miami Center
Sat 10:57:00 AM 26.5680 -80.5840 156° South  Level FlightAware Approximate
Sat 10:57:16 AM 26.5200 -80.5644 160° South 138 159 3,000  Level Miami Center
Sat 10:58:00 AM 26.5345 -80.5687 158° South  Level FlightAware Approximate
Sat 10:58:22 AM 26.4808 -80.5494 161° South 136 157 3,000  Level Miami Center
Sat 10:59:00 AM 26.5010 -80.5535 158° South  Level FlightAware Approximate
Sat 10:59:24 AM 26.4414 -80.5389 167° South 139 160 3,000  Level Miami Center
Sat 11:00:00 AM 26.4675 -80.5382 158° South  Level FlightAware Approximate
Sat 11:00:25 AM 26.4019 -80.5214 158° South 140 161 3,000  Level Miami Center
Sat 11:01:33 AM 26.3650 -80.4994 152° Southeast 141 162 3,000  Level Miami Center
Sat 11:02:34 AM 26.3300 -80.4775 151° Southeast 142 163 3,000  Level Miami Center
Sat 11:03:29 AM 26.3036 -80.4464 133° Southeast 151 174 3,000  Level Miami Center
Sat 11:04:30 AM 26.2839 -80.4042 118° Southeast 159 183 3,000  Level Miami Center
Sat 11:05:32 AM 26.2725 -80.3597 106° East 158 182 3,000 -205 Level Miami Center
Sat 11:06:27 AM 26.2650 -80.3133 100° East 170 196 2,600 -246 Descending Miami Center
Sat 11:07:34 AM 26.2644 -80.2578 91° East 157 181 2,500 -234 Descending Miami Center
Sat 11:08:35 AM 26.2697 -80.2044 84° East 155 178 2,100 -195 Descending Miami Center
Sat 11:09:37 AM 26.2708 -80.1606 88° East 147 169 2,100  Level Miami Center
Sat 11:10:38 AM 26.2506 -80.1253 123° Southeast 140 161 2,100  Level Miami Center
Sat 11:11:45 AM 26.2136 -80.1011 150° Southeast 122 140 2,100 -390 Level Miami Center
Sat 11:12:41 AM 26.2006 -80.1217 235° Southwest 84 97 1,300 -872 Descending Miami Center
Sat 11:13:42 AM 26.1981 -80.1469 264° West 73 84 400 -885 Descending Miami Center
Sat 11:15:00 AM 26.1973 -80.1707 264° West  Level Estimated
Sat 11:22:00 AM 26.1973 -80.1707 70° East  Level Estimated

Login

Don't have an account? Register now (free) for customized features, flight alerts, and more!